Location: MAS Eagle Lake Observatory
(44.8103°N, 93.9397°W)
Time: 05:00:11
(UTC-06:00)

OTV 5 (USA 277) - Visible Passes

Search period start: 18 February 2018 00:00
Search period end: 28 February 2018 00:00
Orbit: 404 x 417 km, 43.0° (Epoch: 07 September)

Date Brightness Start Highest point End Pass type
(mag) Time Alt. Az. Time Alt. Az. Time Alt. Az.
20 Feb ? 05:57:14 10° SSW 05:59:23 16° SSE 06:01:34 10° ESE visible
21 Feb ? 05:07:29 10° SSE 05:08:31 11° SSE 05:09:42 10° SE visible
22 Feb ? 05:51:51 13° SW 05:54:17 30° SSE 05:57:13 10° E visible
23 Feb ? 05:03:21 22° SSE 05:03:21 22° SSE 05:05:59 10° E visible
24 Feb ? 05:47:30 22° SW 05:49:18 48° SSE 05:52:29 10° E visible
25 Feb ? 04:58:49 35° SE 04:58:49 35° SE 05:01:24 10° E visible
26 Feb ? 04:10:07 11° E 04:10:07 11° E 04:10:16 10° E visible
26 Feb ? 05:42:52 28° WSW 05:44:23 62° S 05:47:39 10° E visible
27 Feb ? 04:54:08 42° ESE 04:54:08 42° ESE 04:56:36 10° E visible
